SCP
0 0 0 0 0 0 0 0 0 0 0 0 0 0 0 0 0 -0 -0 -0 -0 -0 -0 -0 -0 -0 -0 -1 -1 -1 -0 -0
0 0 0 0 0 0 0 0 0 0 0 0 0 0 0 0 -0 -0 -0 -0 -0 -0 -0 -0 -0 -0 -0 -0 -1 -1 -0 -0
0 0 0 0 0 0 0 0 0 0 0 0 0 1 0 0 0 0 0 0 -0 -0 -0 -0 -0 -0 -0 -0 -0 -0 -0 -0
0 0 0 0 0 0 0 0 0 0 0 0 1 0 0 0 0 0 0 0 0 0 0 -0 -0 -0 -0 -0 -0 -0 -0 -0
0 0 0 0 0 0 0 0 0 0 0 0 0 1 0 0 0 0 0 0 0 0 0 0 0 0 -0 -0 -0 -0 -0 -0
0 0 0 0 0 0 0 0 0 0 0 0 2 1 0 0 0 0 0 0 0 0 0 0 0 0 0 0 0 0 0 0
0 0 0 0 0 0 0 0 0 0 0 0 1 1 1 1 0 0 0 0 0 0 0 0 0 0 0 0 0 0 0 0
0 0 0 0 0 0 0 0 0 0 0 0 -0 1 2 1 1 0 0 0 0 0 0 0 0 0 0 0 0 0 0 0
0 0 0 0 0 0 0 0 0 0 0 0 0 1 2 1 0 0 0 0 0 0 0 0 0 0 0 0 0 0 0 0
0 0 0 0 0 0 0 0 0 0 0 0 0 0 0 2 0 0 1 0 0 0 1 0 0 0 0 0 0 0 0 0
0 0 0 0 0 0 0 0 0 0 0 0 0 0 0 0 1 0 0 1 1 1 1 1 1 0 0 0 0 0 0 0
0 0 0 -0 0 0 0 0 0 0 0 0 0 0 0 0 1 1 0 1 1 1 1 1 1 1 1 0 0 0 0 0
0 0 -0 0 0 0 -0 0 0 0 0 0 0 0 0 0 0 1 1 1 1 1 1 1 1 1 1 1 1 0 1 1
0 0 0 0 0 0 -0 -0 0 0 0 0 0 0 0 0 0 1 1 1 1 1 1 1 0 0 0 1 1 1 1 1
0 0 0 0 0 -0 0 -0 0 0 0 0 0 0 0 0 1 2 1 1 2 2 1 1 1 2 2 2 2 1 1 1
0 0 0 0 -0 -0 -0 -0 -0 -0 0 0 0 0 0 0 1 1 2 2 2 3 5 2 1 1 1 1 2 1 2 2
0 0 0 0 -0 -0 -0 -0 -0 -0 -0 0 0 0 0 0 1 3 2 1 3 2 2 3 1 1 2 0 2 1 1 1
0 0 0 0 0 0 0 -0 0 0 -0 0 0 0 0 0 0 0 0 2 3 2 2 3 -1 3 0 1 1 3 1 2
0 0 0 -0 0 0 0 0 0 -0 0 0 0 0 0 0 0 0 0 1 3 4 3 3 4 1 0 -0 3 2 1 2
0 0 0 0 -0 0 0 0 0 0 0 0 0 0 0 0 0 0 -0 0 1 4 7 7 6 4 10 5 4 2 2 2
Wind_Speed_500mb
11 25 32 24 16 18 11 13 18 13 16 17 7 5 1 4 30 44 44 49 54 54 53 48 44 48 52 51 48 43 36 31
22 38 28 31 8 3 10 12 9 13 25 12 6 6 4 10 37 45 45 47 52 53 53 52 49 50 50 49 46 42 36 31
31 48 43 20 28 17 21 17 17 22 20 26 12 18 10 24 41 45 46 45 55 56 52 51 52 51 50 48 45 41 36 32
35 42 41 38 36 38 34 33 28 26 23 27 9 6 12 29 41 43 45 44 55 56 52 50 50 50 49 47 45 40 34 32
39 37 35 34 37 34 33 31 32 22 25 19 8 12 19 31 41 44 44 46 54 56 53 48 48 48 48 46 43 38 34 35
35 32 42 33 28 39 38 42 36 29 17 6 7 13 24 34 40 43 45 45 49 57 55 54 51 49 46 45 41 36 35 38
34 31 29 10 25 32 37 28 29 27 19 19 9 17 26 37 42 44 46 48 47 50 51 49 46 51 49 44 41 38 40 41
17 18 23 31 29 27 32 33 41 35 16 2 6 16 28 40 50 54 56 54 51 51 51 50 45 46 52 50 47 46 47 48
19 30 31 36 40 37 37 40 42 36 23 10 8 13 26 36 44 52 51 51 55 55 54 51 47 45 46 43 43 48 49 47
25 25 32 37 41 42 42 53 47 44 25 32 29 24 26 38 44 48 52 53 53 54 56 56 47 46 44 43 43 42 47 53
33 37 41 44 45 44 56 53 54 57 50 50 48 43 39 42 46 46 52 54 56 55 55 56 54 44 44 43 42 40 41 49
32 37 34 39 41 43 38 24 49 66 70 63 55 52 45 43 54 54 54 56 55 58 57 57 59 48 45 42 40 39 38 38
34 40 30 19 31 47 65 59 57 60 57 59 60 57 51 44 57 59 57 51 56 55 55 62 63 56 46 41 40 38 38 40
11 14 28 15 26 30 29 42 54 61 57 58 60 60 49 44 53 54 47 51 55 53 54 60 55 48 44 40 38 38 37 35
11 5 6 21 26 20 13 25 36 49 49 50 54 55 47 42 50 51 51 46 51 56 44 45 43 51 50 43 49 39 38 35
15 14 9 16 33 34 29 25 32 38 41 43 49 49 39 38 47 46 46 52 50 49 40 23 53 49 37 39 43 47 54 28
21 16 20 28 24 29 27 20 29 35 35 37 43 37 25 25 31 35 34 38 58 43 34 26 43 30 31 40 38 47 47 47
23 12 10 17 29 28 20 16 13 21 24 26 39 45 25 14 27 27 37 60 64 55 70 38 45 37 31 25 38 50 51 50
26 22 25 29 31 29 14 13 6 12 10 12 28 47 37 24 19 50 41 38 49 69 68 68 53 51 62 39 67 72 61 60
28 26 21 10 22 9 3 12 11 0 7 9 14 35 42 40 41 29 47 66 64 56 76 75 78 70 83 77 84 81 57 64
Wind_Direction_500mb
228 241 244 252 156 233 249 308 329 307 326 318 353 345 358 227 165 161 166 172 184 182 180 180 179 180 180 181 181 183 183 185
240 240 234 258 175 170 246 264 295 312 302 290 254 322 286 211 164 168 167 171 184 183 183 182 180 180 183 186 188 188 190 194
229 243 250 210 266 278 274 279 273 308 290 288 277 278 241 176 171 170 171 173 181 183 187 186 185 184 188 192 193 194 195 199
236 240 238 249 250 262 261 270 274 280 287 289 256 228 191 176 175 174 175 175 184 185 187 189 189 190 193 195 196 198 201 205
250 255 249 232 234 257 260 258 261 271 288 286 257 215 180 176 177 179 178 175 184 186 187 192 193 196 198 197 199 202 206 204
242 253 255 247 232 248 252 259 259 259 254 228 2 199 180 175 181 184 183 184 182 187 190 190 196 198 202 201 202 206 205 198
241 242 254 228 252 250 256 262 245 249 274 305 271 193 187 180 184 187 190 191 186 184 187 187 193 197 199 204 206 205 199 196
260 275 259 268 257 263 266 253 241 238 218 15 103 205 202 197 191 192 193 194 192 188 188 186 191 195 197 202 203 200 199 200
233 247 257 266 265 258 253 254 242 243 209 244 228 236 227 218 208 201 198 198 195 191 191 189 190 193 192 195 197 199 201 204
252 256 253 259 265 263 255 256 258 246 257 267 255 247 244 231 220 209 204 201 200 199 197 192 194 195 194 195 197 198 202 207
253 256 255 265 266 268 262 259 257 258 263 261 262 256 257 243 228 219 213 208 203 202 201 200 193 201 198 198 203 203 205 211
250 252 254 253 264 261 262 254 247 251 251 253 256 254 253 246 227 218 215 212 205 204 205 203 204 202 203 204 209 206 210 213
235 241 239 263 254 251 255 250 245 251 251 250 251 253 254 256 228 221 215 209 205 205 207 210 211 210 207 210 205 215 214 215
148 217 219 210 284 285 262 233 236 247 252 249 248 247 249 255 226 222 217 213 205 203 208 216 214 213 213 212 211 213 219 220
236 68 151 211 286 307 297 250 233 238 247 244 245 241 250 244 219 217 217 214 209 206 208 220 226 217 218 216 222 220 217 218
234 142 217 246 266 278 277 246 235 237 245 238 235 235 249 231 214 214 217 224 223 209 199 208 263 233 233 223 230 228 227 223
259 261 273 275 274 287 287 257 243 236 244 231 226 223 224 197 201 223 242 244 216 215 201 208 210 226 259 246 228 236 228 231
267 270 259 265 292 283 267 266 268 233 224 223 214 217 223 236 243 232 220 224 226 224 219 229 268 273 320 289 262 257 263 238
267 268 280 260 268 252 215 233 258 277 256 218 214 223 227 241 233 232 265 256 234 211 221 211 211 252 258 288 283 256 237 236
268 266 260 182 273 144 232 278 208 32 22 7 238 223 234 238 226 212 216 245 244 232 239 243 226 221 219 213 217 244 241 232
Wind_Speed_850mb
11 25 32 24 16 18 11 13 18 13 16 17 7 5 1 4 30 44 44 49 54 54 53 48 44 48 52 51 48 43 36 31
22 38 28 31 8 3 10 12 9 13 25 12 6 6 4 10 37 45 45 47 52 53 53 52 49 50 50 49 46 42 36 31
31 48 43 20 28 17 21 17 17 22 20 26 12 18 10 24 41 45 46 45 55 56 52 51 52 51 50 48 45 41 36 32
35 42 41 38 36 38 34 33 28 26 23 27 9 6 12 29 41 43 45 44 55 56 52 50 50 50 49 47 45 40 34 32
39 37 35 34 37 34 33 31 32 22 25 19 8 12 19 31 41 44 44 46 54 56 53 48 48 48 48 46 43 38 34 35
35 32 42 33 28 39 38 42 36 29 17 6 7 13 24 34 40 43 45 45 49 57 55 54 51 49 46 45 41 36 35 38
34 31 29 10 25 32 37 28 29 27 19 19 9 17 26 37 42 44 46 48 47 50 51 49 46 51 49 44 41 38 40 41
17 18 23 31 29 27 32 33 41 35 16 2 6 16 28 40 50 54 56 54 51 51 51 50 45 46 52 50 47 46 47 48
19 30 31 36 40 37 37 40 42 36 23 10 8 13 26 36 44 52 51 51 55 55 54 51 47 45 46 43 43 48 49 47
25 25 32 37 41 42 42 53 47 44 25 32 29 24 26 38 44 48 52 53 53 54 56 56 47 46 44 43 43 42 47 53
33 37 41 44 45 44 56 53 54 57 50 50 48 43 39 42 46 46 52 54 56 55 55 56 54 44 44 43 42 40 41 49
32 37 34 39 41 43 38 24 49 66 70 63 55 52 45 43 54 54 54 56 55 58 57 57 59 48 45 42 40 39 38 38
34 40 30 19 31 47 65 59 57 60 57 59 60 57 51 44 57 59 57 51 56 55 55 62 63 56 46 41 40 38 38 40
11 14 28 15 26 30 29 42 54 61 57 58 60 60 49 44 53 54 47 51 55 53 54 60 55 48 44 40 38 38 37 35
11 5 6 21 26 20 13 25 36 49 49 50 54 55 47 42 50 51 51 46 51 56 44 45 43 51 50 43 49 39 38 35
15 14 9 16 33 34 29 25 32 38 41 43 49 49 39 38 47 46 46 52 50 49 40 23 53 49 37 39 43 47 54 28
21 16 20 28 24 29 27 20 29 35 35 37 43 37 25 25 31 35 34 38 58 43 34 26 43 30 31 40 38 47 47 47
23 12 10 17 29 28 20 16 13 21 24 26 39 45 25 14 27 27 37 60 64 55 70 38 45 37 31 25 38 50 51 50
26 22 25 29 31 29 14 13 6 12 10 12 28 47 37 24 19 50 41 38 49 69 68 68 53 51 62 39 67 72 61 60
28 26 21 10 22 9 3 12 11 0 7 9 14 35 42 40 41 29 47 66 64 56 76 75 78 70 83 77 84 81 57 64
Wind_Direction_850mb
228 241 244 252 156 233 249 308 329 307 326 318 353 345 358 227 165 161 166 172 184 182 180 180 179 180 180 181 181 183 183 185
240 240 234 258 175 170 246 264 295 312 302 290 254 322 286 211 164 168 167 171 184 183 183 182 180 180 183 186 188 188 190 194
229 243 250 210 266 278 274 279 273 308 290 288 277 278 241 176 171 170 171 173 181 183 187 186 185 184 188 192 193 194 195 199
236 240 238 249 250 262 261 270 274 280 287 289 256 228 191 176 175 174 175 175 184 185 187 189 189 190 193 195 196 198 201 205
250 255 249 232 234 257 260 258 261 271 288 286 257 215 180 176 177 179 178 175 184 186 187 192 193 196 198 197 199 202 206 204
242 253 255 247 232 248 252 259 259 259 254 228 2 199 180 175 181 184 183 184 182 187 190 190 196 198 202 201 202 206 205 198
241 242 254 228 252 250 256 262 245 249 274 305 271 193 187 180 184 187 190 191 186 184 187 187 193 197 199 204 206 205 199 196
260 275 259 268 257 263 266 253 241 238 218 15 103 205 202 197 191 192 193 194 192 188 188 186 191 195 197 202 203 200 199 200
233 247 257 266 265 258 253 254 242 243 209 244 228 236 227 218 208 201 198 198 195 191 191 189 190 193 192 195 197 199 201 204
252 256 253 259 265 263 255 256 258 246 257 267 255 247 244 231 220 209 204 201 200 199 197 192 194 195 194 195 197 198 202 207
253 256 255 265 266 268 262 259 257 258 263 261 262 256 257 243 228 219 213 208 203 202 201 200 193 201 198 198 203 203 205 211
250 252 254 253 264 261 262 254 247 251 251 253 256 254 253 246 227 218 215 212 205 204 205 203 204 202 203 204 209 206 210 213
235 241 239 263 254 251 255 250 245 251 251 250 251 253 254 256 228 221 215 209 205 205 207 210 211 210 207 210 205 215 214 215
148 217 219 210 284 285 262 233 236 247 252 249 248 247 249 255 226 222 217 213 205 203 208 216 214 213 213 212 211 213 219 220
236 68 151 211 286 307 297 250 233 238 247 244 245 241 250 244 219 217 217 214 209 206 208 220 226 217 218 216 222 220 217 218
234 142 217 246 266 278 277 246 235 237 245 238 235 235 249 231 214 214 217 224 223 209 199 208 263 233 233 223 230 228 227 223
259 261 273 275 274 287 287 257 243 236 244 231 226 223 224 197 201 223 242 244 216 215 201 208 210 226 259 246 228 236 228 231
267 270 259 265 292 283 267 266 268 233 224 223 214 217 223 236 243 232 220 224 226 224 219 229 268 273 320 289 262 257 263 238
267 268 280 260 268 252 215 233 258 277 256 218 214 223 227 241 233 232 265 256 234 211 221 211 211 252 258 288 283 256 237 236
268 266 260 182 273 144 232 278 208 32 22 7 238 223 234 238 226 212 216 245 244 232 239 243 226 221 219 213 217 244 241 232